[[{"header":{"parameterUnit":"m.s-1","parameterCategory":1,"la1":30.2991,"la2":30.254,"lo1":-89.0895,"lo2":-89.0444,"dy":0.0017,"dx":0.0017,"nx":28,"ny":28,"refTime":"2025-05-14T21:00:00:Z","depth":0,"parameterNumber":2,"parameterNumberName":"U-component_of_WINDS"},"data":[0,0,0,0,0,0,0,0,0,0,0,0,0,0,0,0,0,0,0,0,0,0,0,0,0,0,0,0,0,0,0,0,0,0,0,0,0,0,0,0,0,0,0,0,0,0,0,0,0,0,0,0,0,0,0,0,0,0,-0.1115,-0.1113,0,-0.096,-0.0958,-0.0956,-0.0933,-0.0935,-0.0936,-0.0937,-0.0778,-0.0773,-0.0767,0,0,0,0,0,0,0,0,0,0,0,0,0,-0.1392,-0.1387,-0.1115,-0.1113,-0.1111,-0.096,-0.0958,-0.0956,-0.0933,-0.0935,-0.0936,-0.0938,-0.078,-0.0773,-0.0767,0,0,0,0,0,0,0,0,0,0,0,0,0,-0.1258,-0.1386,-0.1115,-0.1081,-0.1077,-0.096,-0.0958,-0.0955,-0.0933,-0.0935,-0.0937,-0.0939,-0.0782,-0.0774,-0.0766,-0.0672,0,0,-0.074,-0.0737,0,0,0,0,0,0,0,0,-0.1266,-0.1248,-0.1088,-0.1084,-0.1078,-0.0968,-0.0997,-0.086,-0.0932,-0.0987,-0.0937,-0.094,-0.0839,-0.0827,-0.0793,-0.0664,-0.0658,-0.074,-0.0734,-0.0731,-0.0729,0,0,0,0,0,0,0,-0.1275,-0.1254,-0.1053,-0.1086,-0.108,-0.1074,-0.1058,-0.0971,-0.0903,-0.0983,-0.0981,-0.0963,-0.0837,-0.0801,-0.0789,-0.0655,-0.074,-0.0732,-0.0727,-0.0724,-0.0443,-0.0441,0,0,0,0,0,0,-0.129,-0.1262,-0.1058,-0.1049,-0.1179,-0.1068,-0.1049,-0.1001,-0.0904,-0.0892,-0.0961,-0.0962,-0.0814,-0.0799,-0.0783,-0.0667,-0.0731,-0.0723,-0.0718,-0.0445,-0.0442,-0.044,0,0,0,0,0,0,-0.1296,-0.1272,-0.1065,-0.1155,-0.1128,-0.1061,-0.1007,-0.0997,-0.0961,-0.0888,-0.0876,-0.0936,-0.0815,-0.0795,-0.07,-0.0661,-0.0719,-0.0712,-0.0448,-0.0444,-0.0441,-0.0433,0,0,0,0,0,0,-0.1304,-0.1275,-0.1238,-0.1154,-0.1123,-0.0983,-0.1005,-0.0992,-0.0946,-0.0946,-0.0861,-0.0849,-0.0815,-0.0712,-0.0692,-0.065,-0.0705,-0.0451,-0.0447,-0.0442,-0.0436,-0.043,-0.0424,0,0,0,0,0,-0.1314,-0.1242,-0.1236,-0.1212,-0.1076,-0.0981,-0.0964,-0.0926,-0.0943,-0.0906,-0.086,-0.0852,-0.0669,-0.0703,-0.0679,-0.0635,-0.0454,-0.0448,-0.0443,-0.0439,-0.0431,-0.0424,0,0,0,0,0,0,-0.1322,-0.123,-0.1223,-0.1121,-0.1059,-0.0978,-0.0929,-0.0918,-0.085,-0.0853,-0.0809,-0.079,-0.0697,-0.0657,-0.0696,-0.0539,-0.0563,-0.0552,-0.0569,-0.056,-0.0554,-0.0564,-0.0698,0,0,0,0,0,-0.1312,-0.1243,-0.1166,-0.1084,-0.1053,-0.0997,-0.0954,-0.0931,-0.0865,-0.0838,-0.0785,-0.0721,-0.0649,-0.0603,-0.0533,-0.0432,-0.0413,-0.039,-0.0383,-0.0378,-0.0369,-0.0313,-0.0301,-0.0421,-0.0421,-0.0422,0,0,-0.1291,-0.1232,-0.119,-0.1084,-0.1033,-0.0962,-0.0975,-0.0899,-0.0846,-0.0827,-0.0733,-0.0692,-0.0619,-0.052,-0.0474,-0.0484,-0.0332,-0.0371,-0.0368,-0.0361,-0.0306,-0.0294,-0.0284,-0.0418,-0.0418,-0.0419,0,0,-0.1214,-0.1163,-0.1089,-0.1038,-0.0961,-0.0924,-0.0907,-0.0827,-0.0799,-0.0705,-0.0689,-0.0626,-0.0503,-0.0451,-0.0409,-0.0315,-0.0306,-0.0294,-0.0259,-0.0205,-0.0195,-0.0187,-0.0153,-0.0141,-0.0285,-0.0285,-0.0285,0,-0.1197,-0.1089,-0.1052,-0.0977,-0.093,-0.0911,-0.0835,-0.0788,-0.0692,-0.0661,-0.0673,-0.0519,-0.0468,-0.0357,-0.0335,-0.0301,-0.028,-0.0302,-0.02,-0.0191,-0.0182,-0.0149,-0.0137,-0.0284,-0.0284,-0.0284,-0.0285,0,-0.1071,-0.0997,-0.0946,-0.0854,-0.0803,-0.0728,-0.0679,-0.0632,-0.0614,-0.0576,-0.0481,-0.0419,-0.0336,-0.0309,-0.029,-0.0195,-0.0204,-0.0209,-0.0231,-0.017,-0.0139,-0.0126,-0.0283,-0.0283,-0.0283,-0.0284,0,0,-0.0993,-0.0883,-0.0865,-0.0823,-0.0738,-0.068,-0.0605,-0.0524,-0.0484,-0.0419,-0.0355,-0.0253,-0.0257,-0.0209,-0.0185,-0.0137,-0.0067,-0.0148,-0.0146,-0.0134,0.0042,0.0046,0.006,-0.0061,-0.0058,-0.0056,0.0036,0,-0.0906,-0.077,-0.0735,-0.062,-0.0551,-0.0532,-0.0467,-0.0408,-0.0371,-0.0308,-0.0268,-0.0195,-0.0207,-0.0178,-0.013,-0.0085,-0.003,-0.0092,-0.0,0.0003,-0.0017,0.0077,0.0082,0.0167,0.0049,0.0051,0.0052,0,-0.0785,-0.0718,-0.0596,-0.0521,-0.049,-0.0432,-0.0356,-0.0295,-0.0229,-0.0205,-0.0153,-0.0133,-0.0055,-0.0083,0.0025,-0.0017,0.0022,0.0049,0.0053,0.0065,0.0033,0.0092,0.0195,0.0208,0.0072,0.007,0.0069,0,-0.0739,-0.0619,-0.053,-0.0495,-0.0405,-0.0365,-0.0325,-0.0261,-0.0215,-0.0148,-0.0118,-0.0044,-0.0003,0.0054,0.0092,0.0068,0.0198,0.0173,0.022,0.0219,0.0248,0.0246,0.036,0.027,0.027,0.027,0.0269,0,-0.0645,-0.057,-0.0508,-0.0453,-0.037,-0.0331,-0.025,-0.021,-0.0153,-0.0091,-0.0071,-0.0013,0.0033,0.0097,0.0128,0.0213,0.0231,0.0252,0.026,0.0252,0.0249,0.0279,0.0275,0.0273,0.0272,0.0272,0.0271,0,-0.0578,-0.0533,-0.0435,-0.0358,-0.0338,-0.0279,-0.0214,-0.016,-0.0124,-0.0045,-0.0025,0.0032,0.0109,0.0152,0.0248,0.0268,0.0364,0.0367,0.0341,0.0345,0.039,0.0386,0.0528,0.0549,0.0444,0.0445,0.0446,0,-0.0519,-0.0461,-0.0379,-0.0335,-0.0295,-0.0226,-0.0179,-0.014,-0.0092,-0.0012,0.0031,0.0109,0.0173,0.0294,0.0344,0.0417,0.0423,0.0468,0.0435,0.0424,0.0426,0.0422,0.0428,0.0475,0.0476,0.0476,0.0477,0,-0.0419,-0.0401,-0.0333,-0.0259,-0.0203,-0.0143,-0.0083,-0.0049,0.0,0.0053,0.0131,0.0181,0.0278,0.0355,0.0432,0.0471,0.0483,0.0487,0.0502,0.0495,0.0478,0.0489,0.0359,0.0484,0.0483,0.0483,0.0482,0.0482,-0.0354,-0.0302,-0.0235,-0.0161,-0.0112,-0.0057,-0.0003,0.004,0.0106,0.0189,0.0207,0.0289,0.0353,0.0458,0.0499,0.0564,0.0556,0.0577,0.0583,0.0588,0.059,0.0466,0.0577,0.0577,0.0577,0.0577,0.0577,0,-0.0252,-0.0209,-0.0141,-0.0058,-0.0,0.0004,0.007,0.0119,0.0191,0.025,0.0312,0.0401,0.0475,0.053,0.0605,0.0646,0.0653,0.0665,0.0663,0.0672,0.0592,0.0573,0.0658,0.0658,0.0658,0.0658,0.0658,0.0658,-0.0192,-0.0103,-0.0077,0.0035,0.0078,0.0159,0.0197,0.0247,0.0294,0.0394,0.0455,0.049,0.0547,0.0626,0.0693,0.0707,0.0735,0.0746,0.0761,0.0686,0.0678,0.0669,0.0651,0.0751,0.0751,0.0835,0.0836,0.0836]},{"header":{"parameterUnit":"m.s-1","parameterCategory":1,"la1":30.2991,"la2":30.254,"lo1":-89.0895,"lo2":-89.0444,"dy":0.0017,"dx":0.0017,"nx":28,"ny":28,"refTime":"2025-05-14T21:00:00:Z","depth":0,"parameterNumber":3,"parameterNumberName":"V-component_of_WINDS"},"data":[0,0,0,0,0,0,0,0,0,0,0,0,0,0,0,0,0,0,0,0,0,0,0,0,0,0,0,0,0,0,0,0,0,0,0,0,0,0,0,0,0,0,0,0,0,0,0,0,0,0,0,0,0,0,0,0,0,0,5.5696,5.5696,0,5.5687,5.5686,5.5686,5.5606,5.5604,5.5602,5.56,5.5592,5.5593,5.5595,0,0,0,0,0,0,0,0,0,0,0,0,0,5.5645,5.5646,5.5696,5.5696,5.5696,5.5687,5.5686,5.5686,5.5606,5.5604,5.5602,5.5599,5.5591,5.5593,5.5595,0,0,0,0,0,0,0,0,0,0,0,0,0,5.5655,5.5647,5.5696,5.5655,5.5651,5.5687,5.5686,5.5686,5.5607,5.5604,5.5601,5.5598,5.5591,5.5593,5.5596,5.567,0,0,5.5603,5.5604,0,0,0,0,0,0,0,0,5.5654,5.5656,5.5661,5.5657,5.5653,5.5644,5.5665,5.5681,5.5608,5.5624,5.56,5.5597,5.5612,5.5612,5.5617,5.567,5.567,5.5603,5.5605,5.5606,5.5606,0,0,0,0,0,0,0,5.5654,5.5656,5.5692,5.5661,5.5656,5.5637,5.5635,5.5668,5.5635,5.5622,5.5616,5.5616,5.5609,5.5615,5.5616,5.567,5.5603,5.5605,5.5607,5.5608,5.5783,5.5786,0,0,0,0,0,0,5.5658,5.5656,5.5692,5.5692,5.5646,5.564,5.5638,5.565,5.5634,5.5629,5.5619,5.5612,5.5612,5.5614,5.5616,5.5702,5.5606,5.5608,5.5609,5.578,5.5784,5.5787,0,0,0,0,0,0,5.5658,5.5662,5.5693,5.5673,5.5675,5.5644,5.5659,5.5652,5.5657,5.5631,5.5625,5.5631,5.561,5.5612,5.5657,5.5701,5.5609,5.5611,5.5776,5.5781,5.5786,5.5876,0,0,0,0,0,0,5.5657,5.5663,5.5691,5.5674,5.5676,5.5735,5.5661,5.5654,5.5662,5.5653,5.5641,5.5636,5.5608,5.5654,5.566,5.5703,5.5613,5.5772,5.5778,5.5784,5.5869,5.5884,5.5896,0,0,0,0,0,5.5655,5.5717,5.5693,5.5697,5.5711,5.5737,5.5739,5.5704,5.5666,5.5694,5.5677,5.5637,5.5695,5.5659,5.5665,5.5709,5.5769,5.5777,5.5784,5.5863,5.5881,5.5896,0,0,0,0,0,0,5.5741,5.5714,5.5687,5.5745,5.5744,5.5724,5.5758,5.5724,5.5734,5.5726,5.5683,5.5681,5.5733,5.5725,5.5686,5.5781,5.5725,5.5734,5.5784,5.58,5.5813,5.5814,5.5615,0,0,0,0,0,5.5766,5.579,5.5765,5.5819,5.582,5.5789,5.5799,5.5773,5.577,5.577,5.5756,5.5756,5.5773,5.5786,5.5802,5.5868,5.5864,5.5901,5.5914,5.5925,5.5934,5.5968,5.5984,5.5811,5.5811,5.5811,0,0,5.5819,5.5808,5.5825,5.5836,5.5832,5.5857,5.5789,5.5819,5.5838,5.5774,5.5816,5.5806,5.5802,5.5858,5.5882,5.5854,5.598,5.5935,5.5944,5.5946,5.5977,5.5993,5.6008,5.5816,5.5815,5.5814,0,0,5.5929,5.5923,5.5967,5.5964,5.5959,5.5938,5.5949,5.5933,5.5924,5.5965,5.5918,5.5939,5.5972,5.5971,5.5975,5.6084,5.6047,5.609,5.616,5.6194,5.6207,5.6219,5.6258,5.6273,5.6098,5.6098,5.6099,0,5.5996,5.6032,5.5994,5.6027,5.6033,5.5976,5.602,5.6019,5.602,5.6025,5.5993,5.6032,5.6026,5.6081,5.6107,5.6112,5.6123,5.6092,5.6208,5.622,5.6231,5.6267,5.6282,5.6104,5.6103,5.6103,5.6102,0,5.6115,5.6141,5.6177,5.6178,5.6188,5.6227,5.6194,5.6209,5.6182,5.6164,5.6207,5.6197,5.6209,5.622,5.6194,5.6271,5.6254,5.6216,5.6159,5.6253,5.6287,5.6301,5.6111,5.6109,5.6108,5.6106,0,0,5.628,5.6258,5.6272,5.6272,5.6261,5.6281,5.6317,5.6328,5.6342,5.6344,5.6373,5.6401,5.6366,5.637,5.6343,5.6373,5.646,5.6331,5.6331,5.6356,5.6545,5.6574,5.6591,5.6436,5.6438,5.644,5.6546,0,5.6386,5.6445,5.6411,5.6476,5.6499,5.6445,5.6476,5.6473,5.6458,5.6476,5.6459,5.648,5.6431,5.6434,5.6461,5.6444,5.6498,5.6436,5.6463,5.6465,5.6466,5.6609,5.6639,5.6739,5.6559,5.6561,5.6562,0,5.6517,5.6524,5.6591,5.6576,5.6584,5.6613,5.662,5.6638,5.6634,5.662,5.6625,5.6591,5.6625,5.6569,5.6616,5.6575,5.6583,5.6577,5.658,5.6582,5.6519,5.6614,5.677,5.6785,5.6583,5.6581,5.658,0,5.6631,5.6657,5.67,5.6702,5.6685,5.6706,5.67,5.6693,5.6702,5.6708,5.6714,5.6725,5.6731,5.674,5.671,5.6672,5.6761,5.6702,5.6751,5.6752,5.6773,5.6772,5.6932,5.6778,5.6778,5.6778,5.6778,0,5.6753,5.6797,5.6751,5.6778,5.6824,5.6785,5.6832,5.682,5.6814,5.6838,5.6792,5.6815,5.6773,5.6793,5.6769,5.6812,5.6815,5.6805,5.6799,5.6809,5.6811,5.6815,5.6807,5.6782,5.6781,5.678,5.6779,0,5.6889,5.686,5.6903,5.6883,5.6879,5.6915,5.6897,5.6922,5.6903,5.6933,5.6938,5.6909,5.6929,5.6899,5.6917,5.6901,5.6959,5.6942,5.6961,5.6956,5.7007,5.7002,5.7176,5.7196,5.7029,5.7031,5.7032,0,5.6969,5.7,5.6984,5.6996,5.6992,5.7013,5.7021,5.6983,5.6994,5.6991,5.7016,5.7032,5.7042,5.7077,5.7058,5.7071,5.7053,5.7113,5.7055,5.7065,5.7055,5.7053,5.7056,5.7126,5.7128,5.7129,5.713,0,5.7114,5.7098,5.7112,5.7121,5.7132,5.7137,5.7139,5.7152,5.7112,5.7127,5.7146,5.7155,5.7172,5.7188,5.7196,5.719,5.7154,5.7149,5.7161,5.7173,5.7182,5.7178,5.6994,5.7145,5.7144,5.7143,5.7142,5.7141,5.7224,5.725,5.7242,5.7259,5.7256,5.7258,5.728,5.7263,5.7279,5.7289,5.7266,5.7291,5.7285,5.7292,5.729,5.731,5.7284,5.7301,5.7306,5.7311,5.7319,5.7179,5.7311,5.731,5.731,5.731,5.7309,0,5.7368,5.7359,5.7375,5.7379,5.7392,5.7356,5.7356,5.7369,5.7392,5.739,5.7401,5.7423,5.7439,5.7421,5.7433,5.7452,5.7436,5.7457,5.7456,5.7455,5.7341,5.7329,5.747,5.747,5.747,5.747,5.747,5.747,5.7444,5.7485,5.7468,5.7507,5.7498,5.7522,5.7525,5.7528,5.7525,5.7552,5.7565,5.7552,5.7543,5.7555,5.7568,5.7562,5.7569,5.7596,5.7584,5.7479,5.7463,5.7448,5.7437,5.7597,5.7598,5.7696,5.7697,5.7698]}]]